Private Wetterstation Sandau
Wetterdaten: Freitag, 07.09.2012
Datum Zeit Temp. A. Feuchte A. Luftdruck Regen Wind Richtung Richtung Taupunkt Windchill
07.09.2012 00:01 13,8 C 63 % 1023,3 hPa 0,0 l/m 10,4 km/h (2 Bft) W-SW 247 6,9 C 13,8 C
07.09.2012 00:01 13,8 C 63 % 1023,3 hPa 0,0 l/m 10,4 km/h (2 Bft) W-SW 247 6,9 C 13,8 C
07.09.2012 00:06 13,8 C 63 % 1023,4 hPa 0,0 l/m 7,2 km/h (2 Bft) W 270 6,9 C 13,8 C
07.09.2012 00:06 13,8 C 63 % 1023,4 hPa 0,0 l/m 7,2 km/h (2 Bft) W 270 6,9 C 13,8 C
07.09.2012 00:11 13,8 C 63 % 1023,4 hPa 0,0 l/m 9,4 km/h (2 Bft) W-SW 247 6,9 C 13,8 C
07.09.2012 00:11 13,8 C 63 % 1023,4 hPa 0,0 l/m 9,4 km/h (2 Bft) W-SW 247 6,9 C 13,8 C
07.09.2012 00:16 13,8 C 63 % 1023,5 hPa 0,0 l/m 4,3 km/h (1 Bft) W-SW 247 6,9 C 13,8 C
07.09.2012 00:16 13,8 C 63 % 1023,5 hPa 0,0 l/m 4,3 km/h (1 Bft) W-SW 247 6,9 C 13,8 C
07.09.2012 00:21 13,8 C 63 % 1023,5 hPa 0,0 l/m 11,2 km/h (2 Bft) W-SW 247 6,9 C 13,8 C
07.09.2012 00:21 13,8 C 63 % 1023,5 hPa 0,0 l/m 11,2 km/h (2 Bft) W-SW 247 6,9 C 13,8 C
07.09.2012 00:26 13,8 C 63 % 1023,5 hPa 0,0 l/m 7,6 km/h (2 Bft) W-SW 247 6,9 C 13,8 C
07.09.2012 00:26 13,8 C 63 % 1023,5 hPa 0,0 l/m 7,6 km/h (2 Bft) W-SW 247 6,9 C 13,8 C
07.09.2012 00:31 13,8 C 63 % 1023,5 hPa 0,0 l/m 8,6 km/h (2 Bft) W 270 6,9 C 13,8 C
07.09.2012 00:31 13,8 C 63 % 1023,5 hPa 0,0 l/m 8,6 km/h (2 Bft) W 270 6,9 C 13,8 C
07.09.2012 00:36 13,8 C 63 % 1023,3 hPa 0,0 l/m 6,1 km/h (2 Bft) W-SW 247 6,9 C 13,8 C
07.09.2012 00:36 13,8 C 63 % 1023,3 hPa 0,0 l/m 6,1 km/h (2 Bft) W-SW 247 6,9 C 13,8 C
07.09.2012 00:41 13,6 C 64 % 1023,3 hPa 0,0 l/m 8,3 km/h (2 Bft) W 270 6,9 C 13,6 C
07.09.2012 00:41 13,6 C 64 % 1023,3 hPa 0,0 l/m 8,3 km/h (2 Bft) W 270 6,9 C 13,6 C
07.09.2012 00:46 13,6 C 64 % 1023,5 hPa 0,0 l/m 6,5 km/h (2 Bft) W-SW 247 6,9 C 13,6 C
07.09.2012 00:46 13,6 C 64 % 1023,5 hPa 0,0 l/m 6,5 km/h (2 Bft) W-SW 247 6,9 C 13,6 C
07.09.2012 00:51 13,6 C 64 % 1023,5 hPa 0,0 l/m 11,5 km/h (2 Bft) W 270 6,9 C 13,6 C
07.09.2012 00:51 13,6 C 64 % 1023,5 hPa 0,0 l/m 11,5 km/h (2 Bft) W 270 6,9 C 13,6 C
07.09.2012 00:56 13,5 C 64 % 1023,5 hPa 0,0 l/m 7,6 km/h (2 Bft) W-SW 247 6,8 C 13,5 C
07.09.2012 00:56 13,5 C 64 % 1023,5 hPa 0,0 l/m 7,6 km/h (2 Bft) W-SW 247 6,8 C 13,5 C
07.09.2012 01:01 13,4 C 64 % 1023,4 hPa 0,0 l/m 4,7 km/h (1 Bft) W-SW 247 6,7 C 13,4 C
07.09.2012 01:01 13,4 C 64 % 1023,4 hPa 0,0 l/m 4,7 km/h (1 Bft) W-SW 247 6,7 C 13,4 C
07.09.2012 01:06 13,3 C 65 % 1023,5 hPa 0,0 l/m 9,0 km/h (2 Bft) W-SW 247 6,9 C 13,3 C
07.09.2012 01:06 13,3 C 65 % 1023,5 hPa 0,0 l/m 9,0 km/h (2 Bft) W-SW 247 6,9 C 13,3 C
07.09.2012 01:11 13,3 C 65 % 1023,3 hPa 0,0 l/m 8,6 km/h (2 Bft) W-SW 247 6,9 C 13,3 C
07.09.2012 01:11 13,3 C 65 % 1023,3 hPa 0,0 l/m 8,6 km/h (2 Bft) W-SW 247 6,9 C 13,3 C
07.09.2012 01:16 13,2 C 65 % 1023,3 hPa 0,0 l/m 9,4 km/h (2 Bft) W-SW 247 6,8 C 13,2 C
07.09.2012 01:16 13,2 C 65 % 1023,3 hPa 0,0 l/m 9,4 km/h (2 Bft) W-SW 247 6,8 C 13,2 C
07.09.2012 01:21 13,2 C 65 % 1023,4 hPa 0,0 l/m 5,0 km/h (1 Bft) W-SW 247 6,8 C 13,2 C
07.09.2012 01:21 13,2 C 65 % 1023,4 hPa 0,0 l/m 5,0 km/h (1 Bft) W-SW 247 6,8 C 13,2 C
07.09.2012 01:26 13,2 C 66 % 1023,3 hPa 0,0 l/m 5,8 km/h (2 Bft) W-SW 247 7,0 C 13,2 C
07.09.2012 01:26 13,2 C 66 % 1023,3 hPa 0,0 l/m 5,8 km/h (2 Bft) W-SW 247 7,0 C 13,2 C
07.09.2012 01:31 13,1 C 66 % 1023,3 hPa 0,0 l/m 11,5 km/h (2 Bft) SW 225 6,9 C 13,1 C
07.09.2012 01:31 13,1 C 66 % 1023,3 hPa 0,0 l/m 11,5 km/h (2 Bft) SW 225 6,9 C 13,1 C
07.09.2012 01:36 13,1 C 66 % 1023,2 hPa 0,0 l/m 5,0 km/h (1 Bft) W-SW 247 6,9 C 13,1 C
07.09.2012 01:36 13,1 C 66 % 1023,2 hPa 0,0 l/m 5,0 km/h (1 Bft) W-SW 247 6,9 C 13,1 C
07.09.2012 01:41 13,1 C 66 % 1023,2 hPa 0,0 l/m 7,6 km/h (2 Bft) W-SW 247 6,9 C 13,1 C
07.09.2012 01:41 13,1 C 66 % 1023,2 hPa 0,0 l/m 7,6 km/h (2 Bft) W-SW 247 6,9 C 13,1 C
07.09.2012 01:46 13,1 C 66 % 1023,0 hPa 0,0 l/m 7,9 km/h (2 Bft) SW 225 6,9 C 13,1 C
07.09.2012 01:46 13,1 C 66 % 1023,0 hPa 0,0 l/m 7,9 km/h (2 Bft) SW 225 6,9 C 13,1 C
07.09.2012 01:51 13,0 C 66 % 1023,2 hPa 0,0 l/m 5,4 km/h (1 Bft) W-NW 292 6,8 C 13,0 C
07.09.2012 01:51 13,0 C 66 % 1023,2 hPa 0,0 l/m 5,4 km/h (1 Bft) W-NW 292 6,8 C 13,0 C
07.09.2012 01:56 13,0 C 66 % 1023,2 hPa 0,0 l/m 10,4 km/h (2 Bft) W 270 6,8 C 13,0 C
07.09.2012 01:56 13,0 C 66 % 1023,2 hPa 0,0 l/m 10,4 km/h (2 Bft) W 270 6,8 C 13,0 C
07.09.2012 02:01 13,0 C 66 % 1023,0 hPa 0,0 l/m 9,7 km/h (2 Bft) W-SW 247 6,8 C 13,0 C
07.09.2012 02:01 13,0 C 66 % 1023,0 hPa 0,0 l/m 9,7 km/h (2 Bft) W-SW 247 6,8 C 13,0 C
07.09.2012 02:06 12,9 C 66 % 1022,8 hPa 0,0 l/m 6,8 km/h (2 Bft) W-SW 247 6,7 C 12,9 C
07.09.2012 02:06 12,9 C 66 % 1022,8 hPa 0,0 l/m 6,8 km/h (2 Bft) W-SW 247 6,7 C 12,9 C
07.09.2012 02:11 12,9 C 67 % 1022,7 hPa 0,0 l/m 14,4 km/h (3 Bft) W 270 6,9 C 12,9 C
07.09.2012 02:11 12,9 C 67 % 1022,7 hPa 0,0 l/m 14,4 km/h (3 Bft) W 270 6,9 C 12,9 C
07.09.2012 02:16 12,9 C 67 % 1022,5 hPa 0,0 l/m 8,3 km/h (2 Bft) SW 225 6,9 C 12,9 C
07.09.2012 02:16 12,9 C 67 % 1022,5 hPa 0,0 l/m 8,3 km/h (2 Bft) SW 225 6,9 C 12,9 C
07.09.2012 02:21 12,9 C 67 % 1022,3 hPa 0,0 l/m 15,1 km/h (3 Bft) SW 225 6,9 C 12,9 C
07.09.2012 02:21 12,9 C 67 % 1022,3 hPa 0,0 l/m 15,1 km/h (3 Bft) SW 225 6,9 C 12,9 C
07.09.2012 02:26 12,9 C 67 % 1022,2 hPa 0,0 l/m 10,1 km/h (2 Bft) W 270 6,9 C 12,9 C
07.09.2012 02:26 12,9 C 67 % 1022,2 hPa 0,0 l/m 10,1 km/h (2 Bft) W 270 6,9 C 12,9 C
07.09.2012 02:31 13,0 C 67 % 1022,3 hPa 0,0 l/m 16,9 km/h (3 Bft) W-SW 247 7,0 C 13,0 C
07.09.2012 02:31 13,0 C 67 % 1022,3 hPa 0,0 l/m 16,9 km/h (3 Bft) W-SW 247 7,0 C 13,0 C
07.09.2012 02:36 13,0 C 67 % 1022,2 hPa 0,0 l/m 10,4 km/h (2 Bft) W 270 7,0 C 13,0 C
07.09.2012 02:36 13,0 C 67 % 1022,2 hPa 0,0 l/m 10,4 km/h (2 Bft) W 270 7,0 C 13,0 C
07.09.2012 02:41 13,0 C 67 % 1022,3 hPa 0,0 l/m 5,8 km/h (2 Bft) S-SW 202 7,0 C 13,0 C
07.09.2012 02:41 13,0 C 67 % 1022,3 hPa 0,0 l/m 5,8 km/h (2 Bft) S-SW 202 7,0 C 13,0 C
07.09.2012 02:46 13,0 C 67 % 1022,2 hPa 0,0 l/m 13,0 km/h (3 Bft) SW 225 7,0 C 13,0 C
07.09.2012 02:46 13,0 C 67 % 1022,2 hPa 0,0 l/m 13,0 km/h (3 Bft) SW 225 7,0 C 13,0 C
07.09.2012 02:51 12,9 C 67 % 1022,3 hPa 0,0 l/m 12,2 km/h (2 Bft) W-SW 247 6,9 C 12,9 C
07.09.2012 02:51 12,9 C 67 % 1022,3 hPa 0,0 l/m 12,2 km/h (2 Bft) W-SW 247 6,9 C 12,9 C
07.09.2012 02:56 12,9 C 67 % 1022,3 hPa 0,0 l/m 11,9 km/h (2 Bft) W-SW 247 6,9 C 12,9 C
07.09.2012 02:56 12,9 C 67 % 1022,3 hPa 0,0 l/m 11,9 km/h (2 Bft) W-SW 247 6,9 C 12,9 C
07.09.2012 03:01 12,9 C 67 % 1022,2 hPa 0,0 l/m 17,3 km/h (3 Bft) W 270 6,9 C 12,9 C
07.09.2012 03:01 12,9 C 67 % 1022,2 hPa 0,0 l/m 17,3 km/h (3 Bft) W 270 6,9 C 12,9 C
07.09.2012 03:06 12,9 C 68 % 1022,2 hPa 0,0 l/m 7,2 km/h (2 Bft) SW 225 7,1 C 12,9 C
07.09.2012 03:06 12,9 C 68 % 1022,2 hPa 0,0 l/m 7,2 km/h (2 Bft) SW 225 7,1 C 12,9 C
07.09.2012 03:11 12,9 C 68 % 1022,1 hPa 0,0 l/m 7,9 km/h (2 Bft) W-SW 247 7,1 C 12,9 C
07.09.2012 03:11 12,9 C 68 % 1022,1 hPa 0,0 l/m 7,9 km/h (2 Bft) W-SW 247 7,1 C 12,9 C
07.09.2012 03:16 13,0 C 68 % 1022,1 hPa 0,0 l/m 12,6 km/h (3 Bft) W-SW 247 7,2 C 13,0 C
07.09.2012 03:16 13,0 C 68 % 1022,1 hPa 0,0 l/m 12,6 km/h (3 Bft) W-SW 247 7,2 C 13,0 C
07.09.2012 03:21 13,0 C 68 % 1022,1 hPa 0,0 l/m 8,6 km/h (2 Bft) S-SW 202 7,2 C 13,0 C
07.09.2012 03:21 13,0 C 68 % 1022,1 hPa 0,0 l/m 8,6 km/h (2 Bft) S-SW 202 7,2 C 13,0 C
07.09.2012 03:26 13,0 C 68 % 1021,9 hPa 0,0 l/m 15,5 km/h (3 Bft) W 270 7,2 C 13,0 C
07.09.2012 03:26 13,0 C 68 % 1021,9 hPa 0,0 l/m 15,5 km/h (3 Bft) W 270 7,2 C 13,0 C
07.09.2012 03:31 12,9 C 68 % 1022,1 hPa 0,0 l/m 4,3 km/h (1 Bft) S-SW 202 7,1 C 12,9 C
07.09.2012 03:31 12,9 C 68 % 1022,1 hPa 0,0 l/m 4,3 km/h (1 Bft) S-SW 202 7,1 C 12,9 C
07.09.2012 03:36 12,9 C 68 % 1021,9 hPa 0,0 l/m 9,7 km/h (2 Bft) W-SW 247 7,1 C 12,9 C
07.09.2012 03:36 12,9 C 68 % 1021,9 hPa 0,0 l/m 9,7 km/h (2 Bft) W-SW 247 7,1 C 12,9 C
07.09.2012 03:41 12,8 C 68 % 1021,7 hPa 0,0 l/m 15,5 km/h (3 Bft) W 270 7,0 C 12,8 C
07.09.2012 03:41 12,8 C 68 % 1021,7 hPa 0,0 l/m 15,5 km/h (3 Bft) W 270 7,0 C 12,8 C
07.09.2012 03:46 12,8 C 69 % 1021,7 hPa 0,0 l/m 6,1 km/h (2 Bft) S-SW 202 7,3 C 12,8 C
07.09.2012 03:46 12,8 C 69 % 1021,7 hPa 0,0 l/m 6,1 km/h (2 Bft) S-SW 202 7,3 C 12,8 C
07.09.2012 03:51 12,6 C 69 % 1021,7 hPa 0,0 l/m 11,9 km/h (2 Bft) SW 225 7,1 C 12,6 C
07.09.2012 03:51 12,6 C 69 % 1021,7 hPa 0,0 l/m 11,9 km/h (2 Bft) SW 225 7,1 C 12,6 C
07.09.2012 03:56 12,5 C 69 % 1021,6 hPa 0,0 l/m 11,5 km/h (2 Bft) W-SW 247 7,0 C 12,5 C
07.09.2012 03:56 12,5 C 69 % 1021,6 hPa 0,0 l/m 11,5 km/h (2 Bft) W-SW 247 7,0 C 12,5 C
07.09.2012 04:01 12,4 C 69 % 1021,5 hPa 0,0 l/m 6,1 km/h (2 Bft) W-SW 247 6,9 C 12,4 C
07.09.2012 04:01 12,4 C 69 % 1021,5 hPa 0,0 l/m 6,1 km/h (2 Bft) W-SW 247 6,9 C 12,4 C
07.09.2012 04:06 12,4 C 70 % 1021,4 hPa 0,0 l/m 6,5 km/h (2 Bft) W-SW 247 7,1 C 12,4 C
07.09.2012 04:06 12,4 C 70 % 1021,4 hPa 0,0 l/m 6,5 km/h (2 Bft) W-SW 247 7,1 C 12,4 C
07.09.2012 04:11 12,4 C 70 % 1021,4 hPa 0,0 l/m 8,6 km/h (2 Bft) W-SW 247 7,1 C 12,4 C
07.09.2012 04:11 12,4 C 70 % 1021,4 hPa 0,0 l/m 8,6 km/h (2 Bft) W-SW 247 7,1 C 12,4 C
07.09.2012 04:16 12,3 C 70 % 1021,4 hPa 0,0 l/m 16,2 km/h (3 Bft) W-SW 247 7,0 C 12,3 C
07.09.2012 04:16 12,3 C 70 % 1021,4 hPa 0,0 l/m 16,2 km/h (3 Bft) W-SW 247 7,0 C 12,3 C
07.09.2012 04:21 12,3 C 70 % 1021,4 hPa 0,0 l/m 12,6 km/h (3 Bft) W-SW 247 7,0 C 12,3 C
07.09.2012 04:21 12,3 C 70 % 1021,4 hPa 0,0 l/m 12,6 km/h (3 Bft) W-SW 247 7,0 C 12,3 C
07.09.2012 04:26 12,3 C 70 % 1021,4 hPa 0,0 l/m 9,7 km/h (2 Bft) W 270 7,0 C 12,3 C
07.09.2012 04:26 12,3 C 70 % 1021,4 hPa 0,0 l/m 9,7 km/h (2 Bft) W 270 7,0 C 12,3 C
07.09.2012 04:31 12,3 C 71 % 1021,3 hPa 0,0 l/m 8,3 km/h (2 Bft) W-SW 247 7,2 C 12,3 C
07.09.2012 04:31 12,3 C 71 % 1021,3 hPa 0,0 l/m 8,3 km/h (2 Bft) W-SW 247 7,2 C 12,3 C
07.09.2012 04:36 12,3 C 71 % 1021,2 hPa 0,0 l/m 6,1 km/h (2 Bft) W-SW 247 7,2 C 12,3 C
07.09.2012 04:36 12,3 C 71 % 1021,2 hPa 0,0 l/m 6,1 km/h (2 Bft) W-SW 247 7,2 C 12,3 C
07.09.2012 04:41 12,3 C 71 % 1021,1 hPa 0,0 l/m 4,0 km/h (1 Bft) SW 225 7,2 C 12,3 C
07.09.2012 04:41 12,3 C 71 % 1021,1 hPa 0,0 l/m 4,0 km/h (1 Bft) SW 225 7,2 C 12,3 C
07.09.2012 04:46 12,3 C 71 % 1021,1 hPa 0,0 l/m 17,3 km/h (3 Bft) W-SW 247 7,2 C 12,3 C
07.09.2012 04:46 12,3 C 71 % 1021,1 hPa 0,0 l/m 17,3 km/h (3 Bft) W-SW 247 7,2 C 12,3 C
07.09.2012 04:51 12,3 C 71 % 1020,9 hPa 0,0 l/m 13,3 km/h (3 Bft) W 270 7,2 C 12,3 C
07.09.2012 04:51 12,3 C 71 % 1020,9 hPa 0,0 l/m 13,3 km/h (3 Bft) W 270 7,2 C 12,3 C
07.09.2012 04:56 12,3 C 71 % 1020,9 hPa 0,0 l/m 10,1 km/h (2 Bft) W-SW 247 7,2 C 12,3 C
07.09.2012 04:56 12,3 C 71 % 1020,9 hPa 0,0 l/m 10,1 km/h (2 Bft) W-SW 247 7,2 C 12,3 C
07.09.2012 05:01 12,4 C 71 % 1020,8 hPa 0,0 l/m 10,1 km/h (2 Bft) W-SW 247 7,3 C 12,4 C
07.09.2012 05:01 12,4 C 71 % 1020,8 hPa 0,0 l/m 10,1 km/h (2 Bft) W-SW 247 7,3 C 12,4 C
07.09.2012 05:06 12,3 C 71 % 1020,9 hPa 0,0 l/m 23,0 km/h (4 Bft) W-SW 247 7,2 C 12,3 C
07.09.2012 05:06 12,3 C 71 % 1020,9 hPa 0,0 l/m 23,0 km/h (4 Bft) W-SW 247 7,2 C 12,3 C
07.09.2012 05:11 12,3 C 71 % 1020,9 hPa 0,0 l/m 16,2 km/h (3 Bft) W 270 7,2 C 12,3 C
07.09.2012 05:11 12,3 C 71 % 1020,9 hPa 0,0 l/m 16,2 km/h (3 Bft) W 270 7,2 C 12,3 C
07.09.2012 05:16 12,3 C 71 % 1020,8 hPa 0,0 l/m 5,8 km/h (2 Bft) W-NW 292 7,2 C 12,3 C
07.09.2012 05:16 12,3 C 71 % 1020,8 hPa 0,0 l/m 5,8 km/h (2 Bft) W-NW 292 7,2 C 12,3 C
07.09.2012 05:21 12,3 C 71 % 1020,7 hPa 0,0 l/m 8,6 km/h (2 Bft) W 270 7,2 C 12,3 C
07.09.2012 05:21 12,3 C 71 % 1020,7 hPa 0,0 l/m 8,6 km/h (2 Bft) W 270 7,2 C 12,3 C
07.09.2012 05:26 12,3 C 71 % 1020,8 hPa 0,0 l/m 9,0 km/h (2 Bft) W-SW 247 7,2 C 12,3 C
07.09.2012 05:26 12,3 C 71 % 1020,8 hPa 0,0 l/m 9,0 km/h (2 Bft) W-SW 247 7,2 C 12,3 C
07.09.2012 05:31 12,4 C 71 % 1020,9 hPa 0,0 l/m 13,3 km/h (3 Bft) W-SW 247 7,3 C 12,4 C
07.09.2012 05:31 12,4 C 71 % 1020,9 hPa 0,0 l/m 13,3 km/h (3 Bft) W-SW 247 7,3 C 12,4 C
07.09.2012 05:36 12,4 C 71 % 1021,0 hPa 0,0 l/m 13,7 km/h (3 Bft) W 270 7,3 C 12,4 C
07.09.2012 05:36 12,4 C 71 % 1021,0 hPa 0,0 l/m 13,7 km/h (3 Bft) W 270 7,3 C 12,4 C
07.09.2012 05:41 12,4 C 71 % 1020,8 hPa 0,0 l/m 15,5 km/h (3 Bft) W-SW 247 7,3 C 12,4 C
07.09.2012 05:41 12,4 C 71 % 1020,8 hPa 0,0 l/m 15,5 km/h (3 Bft) W-SW 247 7,3 C 12,4 C
07.09.2012 05:46 12,5 C 71 % 1020,9 hPa 0,0 l/m 8,6 km/h (2 Bft) W 270 7,4 C 12,5 C
07.09.2012 05:46 12,5 C 71 % 1020,9 hPa 0,0 l/m 8,6 km/h (2 Bft) W 270 7,4 C 12,5 C
07.09.2012 05:51 12,5 C 71 % 1020,7 hPa 0,0 l/m 4,0 km/h (1 Bft) W-SW 247 7,4 C 12,5 C
07.09.2012 05:51 12,5 C 71 % 1020,7 hPa 0,0 l/m 4,0 km/h (1 Bft) W-SW 247 7,4 C 12,5 C
07.09.2012 05:56 12,5 C 71 % 1020,7 hPa 0,0 l/m 16,6 km/h (3 Bft) SW 225 7,4 C 12,5 C
07.09.2012 05:56 12,5 C 71 % 1020,7 hPa 0,0 l/m 16,6 km/h (3 Bft) SW 225 7,4 C 12,5 C
07.09.2012 06:01 12,6 C 71 % 1020,5 hPa 0,0 l/m 12,2 km/h (2 Bft) W 270 7,5 C 12,6 C
07.09.2012 06:01 12,6 C 71 % 1020,5 hPa 0,0 l/m 12,2 km/h (2 Bft) W 270 7,5 C 12,6 C
07.09.2012 06:06 12,6 C 71 % 1020,5 hPa 0,0 l/m 15,8 km/h (3 Bft) W-SW 247 7,5 C 12,6 C
07.09.2012 06:06 12,6 C 71 % 1020,5 hPa 0,0 l/m 15,8 km/h (3 Bft) W-SW 247 7,5 C 12,6 C
07.09.2012 06:11 12,6 C 71 % 1020,3 hPa 0,0 l/m 16,6 km/h (3 Bft) W 270 7,5 C 12,6 C
07.09.2012 06:11 12,6 C 71 % 1020,3 hPa 0,0 l/m 16,6 km/h (3 Bft) W 270 7,5 C 12,6 C
07.09.2012 06:16 12,6 C 71 % 1020,4 hPa 0,0 l/m 17,6 km/h (3 Bft) W 270 7,5 C 12,6 C
07.09.2012 06:16 12,6 C 71 % 1020,4 hPa 0,0 l/m 17,6 km/h (3 Bft) W 270 7,5 C 12,6 C
07.09.2012 06:21 12,5 C 71 % 1020,4 hPa 0,0 l/m 20,2 km/h (4 Bft) W-SW 247 7,4 C 12,5 C
07.09.2012 06:21 12,5 C 71 % 1020,4 hPa 0,0 l/m 20,2 km/h (4 Bft) W-SW 247 7,4 C 12,5 C
07.09.2012 06:26 12,6 C 71 % 1020,3 hPa 0,0 l/m 11,2 km/h (2 Bft) W 270 7,5 C 12,6 C
07.09.2012 06:26 12,6 C 71 % 1020,3 hPa 0,0 l/m 11,2 km/h (2 Bft) W 270 7,5 C 12,6 C
07.09.2012 06:31 12,6 C 71 % 1020,3 hPa 0,0 l/m 23,0 km/h (4 Bft) W-SW 247 7,5 C 12,6 C
07.09.2012 06:31 12,6 C 71 % 1020,3 hPa 0,0 l/m 23,0 km/h (4 Bft) W-SW 247 7,5 C 12,6 C
07.09.2012 06:36 12,6 C 71 % 1020,4 hPa 0,0 l/m 17,3 km/h (3 Bft) W 270 7,5 C 12,6 C
07.09.2012 06:36 12,6 C 71 % 1020,4 hPa 0,0 l/m 17,3 km/h (3 Bft) W 270 7,5 C 12,6 C
07.09.2012 06:41 12,6 C 71 % 1020,4 hPa 0,0 l/m 18,0 km/h (3 Bft) W-SW 247 7,5 C 12,6 C
07.09.2012 06:41 12,6 C 71 % 1020,4 hPa 0,0 l/m 18,0 km/h (3 Bft) W-SW 247 7,5 C 12,6 C
07.09.2012 06:46 12,7 C 71 % 1020,4 hPa 0,0 l/m 11,9 km/h (2 Bft) W 270 7,6 C 12,7 C
07.09.2012 06:46 12,7 C 71 % 1020,4 hPa 0,0 l/m 11,9 km/h (2 Bft) W 270 7,6 C 12,7 C
07.09.2012 06:51 12,8 C 71 % 1020,3 hPa 0,0 l/m 19,1 km/h (3 Bft) W 270 7,7 C 12,8 C
07.09.2012 06:51 12,8 C 71 % 1020,3 hPa 0,0 l/m 19,1 km/h (3 Bft) W 270 7,7 C 12,8 C
07.09.2012 06:56 12,8 C 71 % 1020,3 hPa 0,0 l/m 8,3 km/h (2 Bft) W-SW 247 7,7 C 12,8 C
07.09.2012 06:56 12,8 C 71 % 1020,3 hPa 0,0 l/m 8,3 km/h (2 Bft) W-SW 247 7,7 C 12,8 C
07.09.2012 07:01 12,9 C 71 % 1020,4 hPa 0,0 l/m 27,0 km/h (4 Bft) W-SW 247 7,8 C 12,9 C
07.09.2012 07:01 12,9 C 71 % 1020,4 hPa 0,0 l/m 27,0 km/h (4 Bft) W-SW 247 7,8 C 12,9 C
07.09.2012 07:06 12,9 C 70 % 1020,3 hPa 0,0 l/m 21,2 km/h (4 Bft) W-SW 247 7,6 C 12,9 C
07.09.2012 07:06 12,9 C 70 % 1020,3 hPa 0,0 l/m 21,2 km/h (4 Bft) W-SW 247 7,6 C 12,9 C
07.09.2012 07:11 12,9 C 70 % 1020,4 hPa 0,0 l/m 13,0 km/h (3 Bft) W-SW 247 7,6 C 12,9 C
07.09.2012 07:11 12,9 C 70 % 1020,4 hPa 0,0 l/m 13,0 km/h (3 Bft) W-SW 247 7,6 C 12,9 C
07.09.2012 07:16 13,0 C 70 % 1020,4 hPa 0,0 l/m 13,3 km/h (3 Bft) W-SW 247 7,7 C 13,0 C
07.09.2012 07:16 13,0 C 70 % 1020,4 hPa 0,0 l/m 13,3 km/h (3 Bft) W-SW 247 7,7 C 13,0 C
07.09.2012 07:21 13,1 C 70 % 1020,4 hPa 0,0 l/m 13,7 km/h (3 Bft) W-SW 247 7,8 C 13,1 C
07.09.2012 07:21 13,1 C 70 % 1020,4 hPa 0,0 l/m 13,7 km/h (3 Bft) W-SW 247 7,8 C 13,1 C
07.09.2012 07:26 13,2 C 70 % 1020,3 hPa 0,0 l/m 11,2 km/h (2 Bft) W-SW 247 7,9 C 13,2 C
07.09.2012 07:26 13,2 C 70 % 1020,3 hPa 0,0 l/m 11,2 km/h (2 Bft) W-SW 247 7,9 C 13,2 C
07.09.2012 07:31 13,2 C 70 % 1020,2 hPa 0,0 l/m 10,4 km/h (2 Bft) NW 315 7,9 C 13,2 C
07.09.2012 07:31 13,2 C 70 % 1020,2 hPa 0,0 l/m 10,4 km/h (2 Bft) NW 315 7,9 C 13,2 C
07.09.2012 07:36 13,3 C 69 % 1020,2 hPa 0,0 l/m 4,3 km/h (1 Bft) SW 225 7,7 C 13,3 C
07.09.2012 07:36 13,3 C 69 % 1020,2 hPa 0,0 l/m 4,3 km/h (1 Bft) SW 225 7,7 C 13,3 C
07.09.2012 07:41 13,3 C 69 % 1020,2 hPa 0,0 l/m 4,0 km/h (1 Bft) W 270 7,7 C 13,3 C
07.09.2012 07:41 13,3 C 69 % 1020,2 hPa 0,0 l/m 4,0 km/h (1 Bft) W 270 7,7 C 13,3 C
07.09.2012 07:46 13,4 C 69 % 1020,1 hPa 0,0 l/m 10,1 km/h (2 Bft) SW 225 7,8 C 13,4 C
07.09.2012 07:46 13,4 C 69 % 1020,1 hPa 0,0 l/m 10,1 km/h (2 Bft) SW 225 7,8 C 13,4 C
07.09.2012 07:51 13,4 C 69 % 1020,2 hPa 0,0 l/m 15,8 km/h (3 Bft) W-SW 247 7,8 C 13,4 C
07.09.2012 07:51 13,4 C 69 % 1020,2 hPa 0,0 l/m 15,8 km/h (3 Bft) W-SW 247 7,8 C 13,4 C
07.09.2012 07:56 13,6 C 69 % 1020,2 hPa 0,0 l/m 23,4 km/h (4 Bft) SW 225 8,0 C 13,6 C
07.09.2012 07:56 13,6 C 69 % 1020,2 hPa 0,0 l/m 23,4 km/h (4 Bft) SW 225 8,0 C 13,6 C
07.09.2012 08:01 13,7 C 69 % 1020,2 hPa 0,0 l/m 22,0 km/h (4 Bft) SW 225 8,1 C 13,7 C
07.09.2012 08:01 13,7 C 69 % 1020,2 hPa 0,0 l/m 22,0 km/h (4 Bft) SW 225 8,1 C 13,7 C
07.09.2012 08:06 13,8 C 69 % 1020,3 hPa 0,0 l/m 18,4 km/h (3 Bft) W-NW 292 8,2 C 13,8 C
07.09.2012 08:06 13,8 C 69 % 1020,3 hPa 0,0 l/m 18,4 km/h (3 Bft) W-NW 292 8,2 C 13,8 C
07.09.2012 08:11 13,9 C 68 % 1020,2 hPa 0,0 l/m 14,4 km/h (3 Bft) W-SW 247 8,1 C 13,9 C
07.09.2012 08:11 13,9 C 68 % 1020,2 hPa 0,0 l/m 14,4 km/h (3 Bft) W-SW 247 8,1 C 13,9 C
07.09.2012 08:16 14,1 C 68 % 1020,3 hPa 0,0 l/m 9,7 km/h (2 Bft) W-SW 247 8,3 C 14,1 C
07.09.2012 08:16 14,1 C 68 % 1020,3 hPa 0,0 l/m 9,7 km/h (2 Bft) W-SW 247 8,3 C 14,1 C
07.09.2012 08:21 14,3 C 68 % 1020,3 hPa 0,0 l/m 16,2 km/h (3 Bft) W-SW 247 8,5 C 14,3 C
07.09.2012 08:21 14,3 C 68 % 1020,3 hPa 0,0 l/m 16,2 km/h (3 Bft) W-SW 247 8,5 C 14,3 C
07.09.2012 08:26 14,5 C 68 % 1020,2 hPa 0,0 l/m 11,2 km/h (2 Bft) W-SW 247 8,7 C 14,5 C
07.09.2012 08:26 14,5 C 68 % 1020,2 hPa 0,0 l/m 11,2 km/h (2 Bft) W-SW 247 8,7 C 14,5 C
07.09.2012 08:31 14,8 C 67 % 1020,2 hPa 0,0 l/m 8,3 km/h (2 Bft) W 270 8,7 C 14,8 C
07.09.2012 08:31 14,8 C 67 % 1020,2 hPa 0,0 l/m 8,3 km/h (2 Bft) W 270 8,7 C 14,8 C
07.09.2012 08:36 14,9 C 66 % 1020,2 hPa 0,0 l/m 21,6 km/h (4 Bft) W 270 8,6 C 14,9 C
07.09.2012 08:36 14,9 C 66 % 1020,2 hPa 0,0 l/m 21,6 km/h (4 Bft) W 270 8,6 C 14,9 C
07.09.2012 08:41 14,9 C 66 % 1020,3 hPa 0,0 l/m 3,6 km/h (1 Bft) W-NW 292 8,6 C 14,9 C
07.09.2012 08:41 14,9 C 66 % 1020,3 hPa 0,0 l/m 3,6 km/h (1 Bft) W-NW 292 8,6 C 14,9 C
07.09.2012 08:46 14,9 C 66 % 1020,4 hPa 0,0 l/m 8,3 km/h (2 Bft) W 270 8,6 C 14,9 C
07.09.2012 08:46 14,9 C 66 % 1020,4 hPa 0,0 l/m 8,3 km/h (2 Bft) W 270 8,6 C 14,9 C
07.09.2012 08:51 15,1 C 66 % 1020,1 hPa 0,0 l/m 21,2 km/h (4 Bft) W-SW 247 8,8 C 15,1 C
07.09.2012 08:51 15,1 C 66 % 1020,1 hPa 0,0 l/m 21,2 km/h (4 Bft) W-SW 247 8,8 C 15,1 C
07.09.2012 08:56 15,3 C 66 % 1020,0 hPa 0,0 l/m 20,5 km/h (4 Bft) W 270 9,0 C 15,3 C
07.09.2012 08:56 15,3 C 66 % 1020,0 hPa 0,0 l/m 20,5 km/h (4 Bft) W 270 9,0 C 15,3 C
07.09.2012 09:01 15,4 C 66 % 1020,0 hPa 0,0 l/m 16,2 km/h (3 Bft) SW 225 9,1 C 15,4 C
07.09.2012 09:01 15,4 C 66 % 1020,0 hPa 0,0 l/m 16,2 km/h (3 Bft) SW 225 9,1 C 15,4 C
07.09.2012 09:06 15,6 C 66 % 1020,1 hPa 0,0 l/m 10,8 km/h (2 Bft) W-SW 247 9,3 C 15,6 C
07.09.2012 09:06 15,6 C 66 % 1020,1 hPa 0,0 l/m 10,8 km/h (2 Bft) W-SW 247 9,3 C 15,6 C
07.09.2012 09:11 15,8 C 66 % 1020,0 hPa 0,0 l/m 33,5 km/h (5 Bft) W 270 9,5 C 15,8 C
07.09.2012 09:11 15,8 C 66 % 1020,0 hPa 0,0 l/m 33,5 km/h (5 Bft) W 270 9,5 C 15,8 C
07.09.2012 09:16 16,1 C 66 % 1020,2 hPa 0,0 l/m 12,6 km/h (3 Bft) W-SW 247 9,7 C 16,1 C
07.09.2012 09:16 16,1 C 66 % 1020,2 hPa 0,0 l/m 12,6 km/h (3 Bft) W-SW 247 9,7 C 16,1 C
07.09.2012 09:21 16,3 C 65 % 1020,0 hPa 0,0 l/m 15,5 km/h (3 Bft) W-SW 247 9,7 C 16,3 C
07.09.2012 09:21 16,3 C 65 % 1020,0 hPa 0,0 l/m 15,5 km/h (3 Bft) W-SW 247 9,7 C 16,3 C
07.09.2012 09:26 16,5 C 64 % 1020,1 hPa 0,0 l/m 16,9 km/h (3 Bft) W 270 9,7 C 16,5 C
07.09.2012 09:26 16,5 C 64 % 1020,1 hPa 0,0 l/m 16,9 km/h (3 Bft) W 270 9,7 C 16,5 C
07.09.2012 09:31 16,5 C 64 % 1020,2 hPa 0,0 l/m 6,5 km/h (2 Bft) W-NW 292 9,7 C 16,5 C
07.09.2012 09:31 16,5 C 64 % 1020,2 hPa 0,0 l/m 6,5 km/h (2 Bft) W-NW 292 9,7 C 16,5 C
07.09.2012 09:36 16,4 C 64 % 1020,4 hPa 0,0 l/m 10,8 km/h (2 Bft) W-NW 292 9,6 C 16,4 C
07.09.2012 09:36 16,4 C 64 % 1020,4 hPa 0,0 l/m 10,8 km/h (2 Bft) W-NW 292 9,6 C 16,4 C
07.09.2012 09:41 16,3 C 65 % 1020,3 hPa 0,0 l/m 9,4 km/h (2 Bft) W-SW 247 9,7 C 16,3 C
07.09.2012 09:41 16,3 C 65 % 1020,3 hPa 0,0 l/m 9,4 km/h (2 Bft) W-SW 247 9,7 C 16,3 C
07.09.2012 09:46 16,3 C 65 % 1020,3 hPa 0,0 l/m 15,5 km/h (3 Bft) W-SW 247 9,7 C 16,3 C
07.09.2012 09:46 16,3 C 65 % 1020,3 hPa 0,0 l/m 15,5 km/h (3 Bft) W-SW 247 9,7 C 16,3 C
07.09.2012 09:51 16,1 C 66 % 1020,4 hPa 0,0 l/m 9,4 km/h (2 Bft) W 270 9,7 C 16,1 C
07.09.2012 09:51 16,1 C 66 % 1020,4 hPa 0,0 l/m 9,4 km/h (2 Bft) W 270 9,7 C 16,1 C
07.09.2012 09:56 16,2 C 66 % 1020,4 hPa 0,0 l/m 20,5 km/h (4 Bft) W-SW 247 9,8 C 16,2 C
07.09.2012 09:56 16,2 C 66 % 1020,4 hPa 0,0 l/m 20,5 km/h (4 Bft) W-SW 247 9,8 C 16,2 C
07.09.2012 10:01 16,3 C 66 % 1020,4 hPa 0,0 l/m 5,0 km/h (1 Bft) W-SW 247 9,9 C 16,3 C
07.09.2012 10:01 16,3 C 66 % 1020,4 hPa 0,0 l/m 5,0 km/h (1 Bft) W-SW 247 9,9 C 16,3 C
07.09.2012 10:06 16,4 C 66 % 1020,4 hPa 0,0 l/m 11,2 km/h (2 Bft) W 270 10,0 C 16,4 C
07.09.2012 10:06 16,4 C 66 % 1020,4 hPa 0,0 l/m 11,2 km/h (2 Bft) W 270 10,0 C 16,4 C
07.09.2012 10:11 16,5 C 66 % 1020,5 hPa 0,0 l/m 8,3 km/h (2 Bft) W-SW 247 10,1 C 16,5 C
07.09.2012 10:11 16,5 C 66 % 1020,5 hPa 0,0 l/m 8,3 km/h (2 Bft) W-SW 247 10,1 C 16,5 C
07.09.2012 10:16 16,6 C 65 % 1020,5 hPa 0,0 l/m 3,6 km/h (1 Bft) W 270 10,0 C 16,6 C
07.09.2012 10:16 16,6 C 65 % 1020,5 hPa 0,0 l/m 3,6 km/h (1 Bft) W 270 10,0 C 16,6 C
07.09.2012 10:21 16,8 C 66 % 1020,6 hPa 0,0 l/m 4,7 km/h (1 Bft) W 270 10,4 C 16,8 C
07.09.2012 10:21 16,8 C 66 % 1020,6 hPa 0,0 l/m 4,7 km/h (1 Bft) W 270 10,4 C 16,8 C
07.09.2012 10:26 17,0 C 66 % 1020,8 hPa 0,0 l/m 4,7 km/h (1 Bft) W-NW 292 10,6 C 17,0 C
07.09.2012 10:26 17,0 C 66 % 1020,8 hPa 0,0 l/m 4,7 km/h (1 Bft) W-NW 292 10,6 C 17,0 C
07.09.2012 10:31 17,1 C 66 % 1020,7 hPa 0,0 l/m 22,0 km/h (4 Bft) W-NW 292 10,7 C 17,1 C
07.09.2012 10:31 17,1 C 66 % 1020,7 hPa 0,0 l/m 22,0 km/h (4 Bft) W-NW 292 10,7 C 17,1 C
07.09.2012 10:36 16,9 C 66 % 1020,9 hPa 0,0 l/m 10,4 km/h (2 Bft) NW 315 10,5 C 16,9 C
07.09.2012 10:36 16,9 C 66 % 1020,9 hPa 0,0 l/m 10,4 km/h (2 Bft) NW 315 10,5 C 16,9 C
07.09.2012 10:41 16,9 C 66 % 1020,7 hPa 0,0 l/m 14,8 km/h (3 Bft) W 270 10,5 C 16,9 C
07.09.2012 10:41 16,9 C 66 % 1020,7 hPa 0,0 l/m 14,8 km/h (3 Bft) W 270 10,5 C 16,9 C
07.09.2012 10:46 16,9 C 67 % 1020,7 hPa 0,0 l/m 15,5 km/h (3 Bft) W-SW 247 10,7 C 16,9 C
07.09.2012 10:46 16,9 C 67 % 1020,7 hPa 0,0 l/m 15,5 km/h (3 Bft) W-SW 247 10,7 C 16,9 C
07.09.2012 10:51 17,0 C 67 % 1020,6 hPa 0,0 l/m 19,1 km/h (3 Bft) W-SW 247 10,8 C 17,0 C
07.09.2012 10:51 17,0 C 67 % 1020,6 hPa 0,0 l/m 19,1 km/h (3 Bft) W-SW 247 10,8 C 17,0 C
07.09.2012 10:56 17,1 C 67 % 1020,7 hPa 0,0 l/m 13,0 km/h (3 Bft) W 270 10,9 C 17,1 C
07.09.2012 10:56 17,1 C 67 % 1020,7 hPa 0,0 l/m 13,0 km/h (3 Bft) W 270 10,9 C 17,1 C
07.09.2012 11:01 17,2 C 66 % 1020,6 hPa 0,0 l/m 3,6 km/h (1 Bft) W-NW 292 10,8 C 17,2 C
07.09.2012 11:01 17,2 C 66 % 1020,6 hPa 0,0 l/m 3,6 km/h (1 Bft) W-NW 292 10,8 C 17,2 C
07.09.2012 11:06 17,3 C 67 % 1020,7 hPa 0,0 l/m 11,9 km/h (2 Bft) W-NW 292 11,1 C 17,3 C
07.09.2012 11:06 17,3 C 67 % 1020,7 hPa 0,0 l/m 11,9 km/h (2 Bft) W-NW 292 11,1 C 17,3 C
07.09.2012 11:11 17,2 C 68 % 1020,6 hPa 0,0 l/m 5,8 km/h (2 Bft) NW 315 11,2 C 17,2 C
07.09.2012 11:11 17,2 C 68 % 1020,6 hPa 0,0 l/m 5,8 km/h (2 Bft) NW 315 11,2 C 17,2 C
07.09.2012 11:16 17,2 C 69 % 1020,6 hPa 0,0 l/m 7,6 km/h (2 Bft) W 270 11,5 C 17,2 C
07.09.2012 11:16 17,2 C 69 % 1020,6 hPa 0,0 l/m 7,6 km/h (2 Bft) W 270 11,5 C 17,2 C
07.09.2012 11:21 17,2 C 69 % 1020,5 hPa 0,0 l/m 4,7 km/h (1 Bft) W-SW 247 11,5 C 17,2 C
07.09.2012 11:21 17,2 C 69 % 1020,5 hPa 0,0 l/m 4,7 km/h (1 Bft) W-SW 247 11,5 C 17,2 C
07.09.2012 11:26 17,3 C 69 % 1020,4 hPa 0,0 l/m 20,5 km/h (4 Bft) W 270 11,6 C 17,3 C
07.09.2012 11:26 17,3 C 69 % 1020,4 hPa 0,0 l/m 20,5 km/h (4 Bft) W 270 11,6 C 17,3 C
07.09.2012 11:31 17,4 C 68 % 1020,5 hPa 0,0 l/m 8,3 km/h (2 Bft) W-NW 292 11,4 C 17,4 C
07.09.2012 11:31 17,4 C 68 % 1020,5 hPa 0,0 l/m 8,3 km/h (2 Bft) W-NW 292 11,4 C 17,4 C
07.09.2012 11:36 17,5 C 68 % 1020,5 hPa 0,0 l/m 23,0 km/h (4 Bft) W-SW 247 11,5 C 17,5 C
07.09.2012 11:36 17,5 C 68 % 1020,5 hPa 0,0 l/m 23,0 km/h (4 Bft) W-SW 247 11,5 C 17,5 C
07.09.2012 11:41 17,6 C 68 % 1020,5 hPa 0,0 l/m 8,3 km/h (2 Bft) W 270 11,6 C 17,6 C
07.09.2012 11:41 17,6 C 68 % 1020,5 hPa 0,0 l/m 8,3 km/h (2 Bft) W 270 11,6 C 17,6 C
07.09.2012 11:46 17,6 C 68 % 1020,6 hPa 0,0 l/m 18,0 km/h (3 Bft) NW 315 11,6 C 17,6 C
07.09.2012 11:46 17,6 C 68 % 1020,6 hPa 0,0 l/m 18,0 km/h (3 Bft) NW 315 11,6 C 17,6 C
07.09.2012 11:51 17,6 C 67 % 1020,6 hPa 0,0 l/m 20,9 km/h (4 Bft) W-NW 292 11,4 C 17,6 C
07.09.2012 11:51 17,6 C 67 % 1020,6 hPa 0,0 l/m 20,9 km/h (4 Bft) W-NW 292 11,4 C 17,6 C
07.09.2012 11:56 17,7 C 67 % 1020,6 hPa 0,0 l/m 11,2 km/h (2 Bft) W-NW 292 11,5 C 17,7 C
07.09.2012 11:56 17,7 C 67 % 1020,6 hPa 0,0 l/m 11,2 km/h (2 Bft) W-NW 292 11,5 C 17,7 C
07.09.2012 12:01 17,8 C 67 % 1020,5 hPa 0,0 l/m 14,0 km/h (3 Bft) W-SW 247 11,6 C 17,8 C
07.09.2012 12:01 17,8 C 67 % 1020,5 hPa 0,0 l/m 14,0 km/h (3 Bft) W-SW 247 11,6 C 17,8 C
07.09.2012 12:06 17,9 C 66 % 1020,5 hPa 0,0 l/m 4,7 km/h (1 Bft) NW 315 11,5 C 17,9 C
07.09.2012 12:06 17,9 C 66 % 1020,5 hPa 0,0 l/m 4,7 km/h (1 Bft) NW 315 11,5 C 17,9 C
07.09.2012 12:11 18,1 C 66 % 1020,5 hPa 0,0 l/m 9,0 km/h (2 Bft) W-NW 292 11,6 C 18,1 C
07.09.2012 12:11 18,1 C 66 % 1020,5 hPa 0,0 l/m 9,0 km/h (2 Bft) W-NW 292 11,6 C 18,1 C
07.09.2012 12:16 18,1 C 66 % 1020,4 hPa 0,0 l/m 23,8 km/h (4 Bft) W-NW 292 11,6 C 18,1 C
07.09.2012 12:16 18,1 C 66 % 1020,4 hPa 0,0 l/m 23,8 km/h (4 Bft) W-NW 292 11,6 C 18,1 C
07.09.2012 12:21 18,2 C 66 % 1020,5 hPa 0,0 l/m 5,0 km/h (1 Bft) W-NW 292 11,7 C 18,2 C
07.09.2012 12:21 18,2 C 66 % 1020,5 hPa 0,0 l/m 5,0 km/h (1 Bft) W-NW 292 11,7 C 18,2 C
07.09.2012 12:26 18,2 C 66 % 1020,3 hPa 0,0 l/m 9,0 km/h (2 Bft) W-NW 292 11,7 C 18,2 C
07.09.2012 12:26 18,2 C 66 % 1020,3 hPa 0,0 l/m 9,0 km/h (2 Bft) W-NW 292 11,7 C 18,2 C
07.09.2012 12:31 18,2 C 66 % 1020,3 hPa 0,0 l/m 12,2 km/h (2 Bft) W 270 11,7 C 18,2 C
07.09.2012 12:31 18,2 C 66 % 1020,3 hPa 0,0 l/m 12,2 km/h (2 Bft) W 270 11,7 C 18,2 C
07.09.2012 12:36 18,4 C 66 % 1020,2 hPa 0,0 l/m 15,8 km/h (3 Bft) S-SW 202 11,9 C 18,4 C
07.09.2012 12:36 18,4 C 66 % 1020,2 hPa 0,0 l/m 15,8 km/h (3 Bft) S-SW 202 11,9 C 18,4 C
07.09.2012 12:41 18,6 C 66 % 1020,2 hPa 0,0 l/m 10,4 km/h (2 Bft) W 270 12,1 C 18,6 C
07.09.2012 12:41 18,6 C 66 % 1020,2 hPa 0,0 l/m 10,4 km/h (2 Bft) W 270 12,1 C 18,6 C
07.09.2012 12:46 18,9 C 65 % 1020,1 hPa 0,0 l/m 7,9 km/h (2 Bft) W 270 12,2 C 18,9 C
07.09.2012 12:46 18,9 C 65 % 1020,1 hPa 0,0 l/m 7,9 km/h (2 Bft) W 270 12,2 C 18,9 C
07.09.2012 12:51 19,0 C 64 % 1020,1 hPa 0,0 l/m 6,5 km/h (2 Bft) W-NW 292 12,0 C 19,0 C
07.09.2012 12:51 19,0 C 64 % 1020,1 hPa 0,0 l/m 6,5 km/h (2 Bft) W-NW 292 12,0 C 19,0 C
07.09.2012 12:56 19,2 C 64 % 1020,0 hPa 0,0 l/m 19,4 km/h (3 Bft) SW 225 12,2 C 19,2 C
07.09.2012 12:56 19,2 C 64 % 1020,0 hPa 0,0 l/m 19,4 km/h (3 Bft) SW 225 12,2 C 19,2 C
07.09.2012 13:01 19,3 C 63 % 1019,9 hPa 0,0 l/m 8,3 km/h (2 Bft) SW 225 12,1 C 19,3 C
07.09.2012 13:01 19,3 C 63 % 1019,9 hPa 0,0 l/m 8,3 km/h (2 Bft) SW 225 12,1 C 19,3 C
07.09.2012 13:06 19,3 C 63 % 1020,0 hPa 0,0 l/m 11,9 km/h (2 Bft) W 270 12,1 C 19,3 C
07.09.2012 13:06 19,3 C 63 % 1020,0 hPa 0,0 l/m 11,9 km/h (2 Bft) W 270 12,1 C 19,3 C
07.09.2012 13:11 19,2 C 63 % 1020,0 hPa 0,0 l/m 13,7 km/h (3 Bft) W-NW 292 12,0 C 19,2 C
07.09.2012 13:11 19,2 C 63 % 1020,0 hPa 0,0 l/m 13,7 km/h (3 Bft) W-NW 292 12,0 C 19,2 C
07.09.2012 13:16 19,1 C 63 % 1020,0 hPa 0,0 l/m 14,8 km/h (3 Bft) W-NW 292 11,9 C 19,1 C
07.09.2012 13:16 19,1 C 63 % 1020,0 hPa 0,0 l/m 14,8 km/h (3 Bft) W-NW 292 11,9 C 19,1 C
07.09.2012 13:21 19,0 C 64 % 1020,0 hPa 0,0 l/m 13,7 km/h (3 Bft) W 270 12,0 C 19,0 C
07.09.2012 13:21 19,0 C 64 % 1020,0 hPa 0,0 l/m 13,7 km/h (3 Bft) W 270 12,0 C 19,0 C
07.09.2012 13:26 19,0 C 65 % 1020,0 hPa 0,0 l/m 26,6 km/h (4 Bft) W-SW 247 12,3 C 19,0 C
07.09.2012 13:26 19,0 C 65 % 1020,0 hPa 0,0 l/m 26,6 km/h (4 Bft) W-SW 247 12,3 C 19,0 C
07.09.2012 13:31 19,1 C 64 % 1019,9 hPa 0,0 l/m 7,2 km/h (2 Bft) W-NW 292 12,1 C 19,1 C
07.09.2012 13:31 19,1 C 64 % 1019,9 hPa 0,0 l/m 7,2 km/h (2 Bft) W-NW 292 12,1 C 19,1 C
07.09.2012 13:36 19,3 C 64 % 1019,8 hPa 0,0 l/m 11,5 km/h (2 Bft) W-NW 292 12,3 C 19,3 C
07.09.2012 13:36 19,3 C 64 % 1019,8 hPa 0,0 l/m 11,5 km/h (2 Bft) W-NW 292 12,3 C 19,3 C
07.09.2012 13:41 19,5 C 64 % 1019,9 hPa 0,0 l/m 6,1 km/h (2 Bft) W 270 12,5 C 19,5 C
07.09.2012 13:41 19,5 C 64 % 1019,9 hPa 0,0 l/m 6,1 km/h (2 Bft) W 270 12,5 C 19,5 C
07.09.2012 13:46 19,8 C 63 % 1019,8 hPa 0,0 l/m 6,5 km/h (2 Bft) W 270 12,5 C 19,8 C
07.09.2012 13:46 19,8 C 63 % 1019,8 hPa 0,0 l/m 6,5 km/h (2 Bft) W 270 12,5 C 19,8 C
07.09.2012 13:51 19,8 C 63 % 1019,9 hPa 0,0 l/m 15,5 km/h (3 Bft) NW 315 12,5 C 19,8 C
07.09.2012 13:51 19,8 C 63 % 1019,9 hPa 0,0 l/m 15,5 km/h (3 Bft) NW 315 12,5 C 19,8 C
07.09.2012 13:56 19,8 C 63 % 1019,8 hPa 0,0 l/m 19,1 km/h (3 Bft) W-NW 292 12,5 C 19,8 C
07.09.2012 13:56 19,8 C 63 % 1019,8 hPa 0,0 l/m 19,1 km/h (3 Bft) W-NW 292 12,5 C 19,8 C
07.09.2012 14:01 19,8 C 63 % 1020,2 hPa 0,0 l/m 14,4 km/h (3 Bft) W-NW 292 12,5 C 19,8 C
07.09.2012 14:01 19,8 C 63 % 1020,2 hPa 0,0 l/m 14,4 km/h (3 Bft) W-NW 292 12,5 C 19,8 C
07.09.2012 14:06 19,9 C 63 % 1020,1 hPa 0,0 l/m 16,9 km/h (3 Bft) W-NW 292 12,6 C 19,9 C
07.09.2012 14:06 19,9 C 63 % 1020,1 hPa 0,0 l/m 16,9 km/h (3 Bft) W-NW 292 12,6 C 19,9 C
07.09.2012 14:11 20,1 C 62 % 1019,9 hPa 0,0 l/m 6,8 km/h (2 Bft) W-SW 247 12,6 C 20,1 C
07.09.2012 14:11 20,1 C 62 % 1019,9 hPa 0,0 l/m 6,8 km/h (2 Bft) W-SW 247 12,6 C 20,1 C
07.09.2012 14:16 20,1 C 61 % 1020,1 hPa 0,0 l/m 11,9 km/h (2 Bft) W-SW 247 12,3 C 20,1 C
07.09.2012 14:16 20,1 C 61 % 1020,1 hPa 0,0 l/m 11,9 km/h (2 Bft) W-SW 247 12,3 C 20,1 C
07.09.2012 14:21 19,9 C 62 % 1020,1 hPa 0,0 l/m 6,8 km/h (2 Bft) N-NW 337 12,4 C 19,9 C
07.09.2012 14:21 19,9 C 62 % 1020,1 hPa 0,0 l/m 6,8 km/h (2 Bft) N-NW 337 12,4 C 19,9 C
07.09.2012 14:26 19,8 C 63 % 1020,1 hPa 0,0 l/m 7,2 km/h (2 Bft) W-NW 292 12,5 C 19,8 C
07.09.2012 14:26 19,8 C 63 % 1020,1 hPa 0,0 l/m 7,2 km/h (2 Bft) W-NW 292 12,5 C 19,8 C
07.09.2012 14:31 19,6 C 63 % 1020,3 hPa 0,0 l/m 6,1 km/h (2 Bft) W 270 12,4 C 19,6 C
07.09.2012 14:31 19,6 C 63 % 1020,3 hPa 0,0 l/m 6,1 km/h (2 Bft) W 270 12,4 C 19,6 C
07.09.2012 14:36 19,5 C 63 % 1020,3 hPa 0,0 l/m 23,0 km/h (4 Bft) NW 315 12,3 C 19,5 C
07.09.2012 14:36 19,5 C 63 % 1020,3 hPa 0,0 l/m 23,0 km/h (4 Bft) NW 315 12,3 C 19,5 C
07.09.2012 14:41 19,4 C 63 % 1020,2 hPa 0,0 l/m 25,2 km/h (4 Bft) W 270 12,2 C 19,4 C
07.09.2012 14:41 19,4 C 63 % 1020,2 hPa 0,0 l/m 25,2 km/h (4 Bft) W 270 12,2 C 19,4 C
07.09.2012 14:46 19,3 C 64 % 1020,2 hPa 0,0 l/m 6,5 km/h (2 Bft) W 270 12,3 C 19,3 C
07.09.2012 14:46 19,3 C 64 % 1020,2 hPa 0,0 l/m 6,5 km/h (2 Bft) W 270 12,3 C 19,3 C
07.09.2012 14:51 19,2 C 64 % 1020,2 hPa 0,0 l/m 7,6 km/h (2 Bft) W-SW 247 12,2 C 19,2 C
07.09.2012 14:51 19,2 C 64 % 1020,2 hPa 0,0 l/m 7,6 km/h (2 Bft) W-SW 247 12,2 C 19,2 C
07.09.2012 14:56 19,1 C 65 % 1020,1 hPa 0,0 l/m 8,3 km/h (2 Bft) W 270 12,4 C 19,1 C
07.09.2012 14:56 19,1 C 65 % 1020,1 hPa 0,0 l/m 8,3 km/h (2 Bft) W 270 12,4 C 19,1 C
07.09.2012 15:01 19,2 C 65 % 1020,1 hPa 0,0 l/m 8,3 km/h (2 Bft) W-NW 292 12,5 C 19,2 C
07.09.2012 15:01 19,2 C 65 % 1020,1 hPa 0,0 l/m 8,3 km/h (2 Bft) W-NW 292 12,5 C 19,2 C
07.09.2012 15:06 19,3 C 65 % 1020,1 hPa 0,0 l/m 8,6 km/h (2 Bft) W-NW 292 12,6 C 19,3 C
07.09.2012 15:06 19,3 C 65 % 1020,1 hPa 0,0 l/m 8,6 km/h (2 Bft) W-NW 292 12,6 C 19,3 C
07.09.2012 15:11 19,4 C 65 % 1020,1 hPa 0,0 l/m 5,0 km/h (1 Bft) W 270 12,6 C 19,4 C
07.09.2012 15:11 19,4 C 65 % 1020,1 hPa 0,0 l/m 5,0 km/h (1 Bft) W 270 12,6 C 19,4 C
07.09.2012 15:16 19,4 C 65 % 1020,0 hPa 0,0 l/m 6,1 km/h (2 Bft) SW 225 12,6 C 19,4 C
07.09.2012 15:16 19,4 C 65 % 1020,0 hPa 0,0 l/m 6,1 km/h (2 Bft) SW 225 12,6 C 19,4 C
07.09.2012 15:21 19,4 C 65 % 1020,1 hPa 0,0 l/m 8,6 km/h (2 Bft) W 270 12,6 C 19,4 C
07.09.2012 15:21 19,4 C 65 % 1020,1 hPa 0,0 l/m 8,6 km/h (2 Bft) W 270 12,6 C 19,4 C
07.09.2012 15:26 19,4 C 65 % 1020,2 hPa 0,0 l/m 9,7 km/h (2 Bft) W-NW 292 12,6 C 19,4 C
07.09.2012 15:26 19,4 C 65 % 1020,2 hPa 0,0 l/m 9,7 km/h (2 Bft) W-NW 292 12,6 C 19,4 C
07.09.2012 15:31 19,4 C 65 % 1020,1 hPa 0,0 l/m 9,0 km/h (2 Bft) W-NW 292 12,6 C 19,4 C
07.09.2012 15:31 19,4 C 65 % 1020,1 hPa 0,0 l/m 9,0 km/h (2 Bft) W-NW 292 12,6 C 19,4 C
07.09.2012 15:36 19,4 C 65 % 1020,1 hPa 0,0 l/m 10,8 km/h (2 Bft) W-SW 247 12,6 C 19,4 C
07.09.2012 15:36 19,4 C 65 % 1020,1 hPa 0,0 l/m 10,8 km/h (2 Bft) W-SW 247 12,6 C 19,4 C
07.09.2012 15:41 19,4 C 65 % 1020,1 hPa 0,0 l/m 13,0 km/h (3 Bft) W-SW 247 12,6 C 19,4 C
07.09.2012 15:41 19,4 C 65 % 1020,1 hPa 0,0 l/m 13,0 km/h (3 Bft) W-SW 247 12,6 C 19,4 C
07.09.2012 15:46 19,3 C 65 % 1020,1 hPa 0,0 l/m 15,5 km/h (3 Bft) W 270 12,6 C 19,3 C
07.09.2012 15:46 19,3 C 65 % 1020,1 hPa 0,0 l/m 15,5 km/h (3 Bft) W 270 12,6 C 19,3 C
07.09.2012 15:51 19,3 C 65 % 1019,9 hPa 0,0 l/m 4,3 km/h (1 Bft) W 270 12,6 C 19,3 C
07.09.2012 15:51 19,3 C 65 % 1019,9 hPa 0,0 l/m 4,3 km/h (1 Bft) W 270 12,6 C 19,3 C
07.09.2012 15:56 19,3 C 65 % 1019,9 hPa 0,0 l/m 9,4 km/h (2 Bft) W-SW 247 12,6 C 19,3 C
07.09.2012 15:56 19,3 C 65 % 1019,9 hPa 0,0 l/m 9,4 km/h (2 Bft) W-SW 247 12,6 C 19,3 C
07.09.2012 16:01 19,3 C 65 % 1020,0 hPa 0,0 l/m 6,1 km/h (2 Bft) W-SW 247 12,6 C 19,3 C
07.09.2012 16:01 19,3 C 65 % 1020,0 hPa 0,0 l/m 6,1 km/h (2 Bft) W-SW 247 12,6 C 19,3 C
07.09.2012 16:06 19,3 C 66 % 1020,0 hPa 0,0 l/m 8,3 km/h (2 Bft) W-SW 247 12,8 C 19,3 C
07.09.2012 16:06 19,3 C 66 % 1020,0 hPa 0,0 l/m 8,3 km/h (2 Bft) W-SW 247 12,8 C 19,3 C
07.09.2012 16:11 19,3 C 66 % 1020,0 hPa 0,0 l/m 10,1 km/h (2 Bft) W-NW 292 12,8 C 19,3 C
07.09.2012 16:11 19,3 C 66 % 1020,0 hPa 0,0 l/m 10,1 km/h (2 Bft) W-NW 292 12,8 C 19,3 C
07.09.2012 16:16 19,3 C 66 % 1019,9 hPa 0,0 l/m 10,8 km/h (2 Bft) W-SW 247 12,8 C 19,3 C
07.09.2012 16:16 19,3 C 66 % 1019,9 hPa 0,0 l/m 10,8 km/h (2 Bft) W-SW 247 12,8 C 19,3 C
07.09.2012 16:21 19,3 C 66 % 1019,9 hPa 0,0 l/m 6,1 km/h (2 Bft) W 270 12,8 C 19,3 C
07.09.2012 16:21 19,3 C 66 % 1019,9 hPa 0,0 l/m 6,1 km/h (2 Bft) W 270 12,8 C 19,3 C
07.09.2012 16:26 19,2 C 66 % 1020,0 hPa 0,0 l/m 11,2 km/h (2 Bft) W 270 12,7 C 19,2 C
07.09.2012 16:31 19,2 C 66 % 1019,8 hPa 0,0 l/m 7,9 km/h (2 Bft) W 270 12,7 C 19,2 C
07.09.2012 16:36 19,2 C 66 % 1019,9 hPa 0,0 l/m 7,9 km/h (2 Bft) W 270 12,7 C 19,2 C
07.09.2012 16:41 19,3 C 66 % 1019,8 hPa 0,0 l/m 6,1 km/h (2 Bft) W-SW 247 12,8 C 19,3 C
07.09.2012 16:46 19,3 C 66 % 1020,0 hPa 0,0 l/m 4,7 km/h (1 Bft) W-NW 292 12,8 C 19,3 C
07.09.2012 16:51 19,4 C 66 % 1019,9 hPa 0,0 l/m 6,1 km/h (2 Bft) W-SW 247 12,9 C 19,4 C
07.09.2012 16:56 19,4 C 66 % 1019,9 hPa 0,0 l/m 7,2 km/h (2 Bft) W 270 12,9 C 19,4 C
07.09.2012 17:01 19,5 C 66 % 1019,9 hPa 0,0 l/m 9,4 km/h (2 Bft) W 270 13,0 C 19,5 C
07.09.2012 17:06 19,5 C 66 % 1020,0 hPa 0,0 l/m 11,9 km/h (2 Bft) W 270 13,0 C 19,5 C
07.09.2012 17:11 19,6 C 66 % 1020,0 hPa 0,0 l/m 5,0 km/h (1 Bft) NW 315 13,1 C 19,6 C
07.09.2012 17:16 19,5 C 66 % 1019,9 hPa 0,0 l/m 14,0 km/h (3 Bft) W-NW 292 13,0 C 19,5 C
07.09.2012 17:21 19,5 C 66 % 1019,9 hPa 0,0 l/m 14,4 km/h (3 Bft) W 270 13,0 C 19,5 C
07.09.2012 17:26 19,4 C 67 % 1020,0 hPa 0,0 l/m 18,0 km/h (3 Bft) W-NW 292 13,1 C 19,4 C
07.09.2012 17:31 19,5 C 67 % 1020,0 hPa 0,0 l/m 15,8 km/h (3 Bft) W 270 13,2 C 19,5 C
07.09.2012 17:36 19,5 C 67 % 1019,9 hPa 0,0 l/m 9,4 km/h (2 Bft) W-NW 292 13,2 C 19,5 C
07.09.2012 17:41 19,5 C 67 % 1020,0 hPa 0,0 l/m 16,9 km/h (3 Bft) W 270 13,2 C 19,5 C
07.09.2012 17:46 19,5 C 67 % 1020,0 hPa 0,0 l/m 11,9 km/h (2 Bft) W-NW 292 13,2 C 19,5 C
07.09.2012 17:51 19,5 C 67 % 1020,0 hPa 0,0 l/m 14,4 km/h (3 Bft) W-NW 292 13,2 C 19,5 C
07.09.2012 17:56 19,4 C 68 % 1020,0 hPa 0,0 l/m 18,7 km/h (3 Bft) NW 315 13,3 C 19,4 C
07.09.2012 18:01 19,3 C 68 % 1020,0 hPa 0,0 l/m 21,6 km/h (4 Bft) NW 315 13,2 C 19,3 C
07.09.2012 18:06 19,3 C 68 % 1020,0 hPa 0,0 l/m 9,7 km/h (2 Bft) W-NW 292 13,2 C 19,3 C
07.09.2012 18:11 19,3 C 68 % 1020,0 hPa 0,0 l/m 24,1 km/h (4 Bft) W-NW 292 13,2 C 19,3 C
07.09.2012 18:16 19,2 C 68 % 1020,2 hPa 0,0 l/m 5,8 km/h (2 Bft) W 270 13,1 C 19,2 C
07.09.2012 18:21 19,2 C 69 % 1020,0 hPa 0,0 l/m 11,9 km/h (2 Bft) W-NW 292 13,4 C 19,2 C
07.09.2012 18:26 19,1 C 69 % 1020,0 hPa 0,0 l/m 4,3 km/h (1 Bft) W-NW 292 13,3 C 19,1 C
07.09.2012 18:31 19,1 C 69 % 1020,0 hPa 0,0 l/m 2,5 km/h (1 Bft) W-NW 292 13,3 C 19,1 C
07.09.2012 18:36 19,1 C 69 % 1020,0 hPa 0,0 l/m 15,1 km/h (3 Bft) NW 315 13,3 C 19,1 C
07.09.2012 18:41 19,2 C 69 % 1020,0 hPa 0,0 l/m 19,8 km/h (3 Bft) NW 315 13,4 C 19,2 C
07.09.2012 18:46 19,2 C 69 % 1020,0 hPa 0,0 l/m 9,0 km/h (2 Bft) NW 315 13,4 C 19,2 C
07.09.2012 18:51 19,2 C 69 % 1019,9 hPa 0,0 l/m 5,8 km/h (2 Bft) W-NW 292 13,4 C 19,2 C
07.09.2012 18:56 19,1 C 69 % 1019,9 hPa 0,0 l/m 14,4 km/h (3 Bft) NW 315 13,3 C 19,1 C
07.09.2012 19:01 19,1 C 69 % 1020,0 hPa 0,0 l/m 9,7 km/h (2 Bft) W-NW 292 13,3 C 19,1 C
07.09.2012 19:06 19,1 C 70 % 1019,9 hPa 0,0 l/m 10,4 km/h (2 Bft) N 360 13,5 C 19,1 C
07.09.2012 19:11 19,0 C 71 % 1020,0 hPa 0,0 l/m 2,5 km/h (1 Bft) N-NO 22 13,6 C 19,0 C
07.09.2012 19:16 18,8 C 74 % 1020,1 hPa 0,0 l/m 9,7 km/h (2 Bft) O-NO 67 14,1 C 18,8 C
07.09.2012 19:21 18,3 C 77 % 1020,2 hPa 0,0 l/m 7,9 km/h (2 Bft) NO 45 14,2 C 18,3 C
07.09.2012 19:26 17,7 C 80 % 1020,4 hPa 0,0 l/m 7,2 km/h (2 Bft) NO 45 14,2 C 17,7 C
07.09.2012 19:31 17,4 C 81 % 1020,4 hPa 0,5 l/m 5,4 km/h (1 Bft) N-NW 337 14,1 C 17,4 C
07.09.2012 19:36 17,2 C 82 % 1020,4 hPa 0,0 l/m 7,6 km/h (2 Bft) W-NW 292 14,1 C 17,2 C
07.09.2012 19:41 17,0 C 82 % 1020,4 hPa 0,5 l/m 8,3 km/h (2 Bft) NW 315 13,9 C 17,0 C
07.09.2012 19:46 16,9 C 83 % 1020,4 hPa 0,0 l/m 7,6 km/h (2 Bft) NW 315 14,0 C 16,9 C
07.09.2012 19:51 16,7 C 84 % 1020,7 hPa 0,0 l/m 9,4 km/h (2 Bft) NW 315 14,0 C 16,7 C
07.09.2012 19:56 16,6 C 85 % 1020,8 hPa 0,0 l/m 3,6 km/h (1 Bft) N 360 14,1 C 16,6 C
07.09.2012 20:01 16,6 C 85 % 1020,7 hPa 0,0 l/m 11,2 km/h (2 Bft) NW 315 14,1 C 16,6 C
07.09.2012 20:06 16,5 C 85 % 1020,7 hPa 0,0 l/m 8,3 km/h (2 Bft) N 360 14,0 C 16,5 C
07.09.2012 20:11 16,5 C 85 % 1020,7 hPa 0,0 l/m 9,4 km/h (2 Bft) NW 315 14,0 C 16,5 C
07.09.2012 20:16 16,4 C 86 % 1020,7 hPa 0,0 l/m 9,7 km/h (2 Bft) W-NW 292 14,1 C 16,4 C
07.09.2012 20:21 16,4 C 85 % 1020,6 hPa 0,0 l/m 14,4 km/h (3 Bft) W-NW 292 13,9 C 16,4 C
07.09.2012 20:26 16,4 C 86 % 1020,8 hPa 0,0 l/m 11,9 km/h (2 Bft) NW 315 14,1 C 16,4 C
07.09.2012 20:31 16,3 C 86 % 1020,9 hPa 0,0 l/m 14,8 km/h (3 Bft) W-NW 292 14,0 C 16,3 C
07.09.2012 20:36 16,3 C 86 % 1020,9 hPa 0,0 l/m 6,1 km/h (2 Bft) W-NW 292 14,0 C 16,3 C
07.09.2012 20:41 16,3 C 86 % 1020,9 hPa 0,0 l/m 8,3 km/h (2 Bft) NW 315 14,0 C 16,3 C
07.09.2012 20:46 16,2 C 86 % 1020,8 hPa 0,0 l/m 4,7 km/h (1 Bft) W-NW 292 13,9 C 16,2 C
07.09.2012 20:51 16,2 C 86 % 1020,9 hPa 0,0 l/m 2,5 km/h (1 Bft) N-NW 337 13,9 C 16,2 C
07.09.2012 20:56 16,2 C 86 % 1021,0 hPa 0,0 l/m 4,0 km/h (1 Bft) NW 315 13,9 C 16,2 C
07.09.2012 21:01 16,2 C 86 % 1021,0 hPa 0,0 l/m 2,5 km/h (1 Bft) NW 315 13,9 C 16,2 C
07.09.2012 21:06 16,1 C 87 % 1021,0 hPa 0,0 l/m 3,2 km/h (1 Bft) W-NW 292 13,9 C 16,1 C
07.09.2012 21:11 16,1 C 87 % 1021,1 hPa 0,0 l/m 8,3 km/h (2 Bft) W-NW 292 13,9 C 16,1 C
07.09.2012 21:16 16,1 C 87 % 1021,1 hPa 0,5 l/m 6,5 km/h (2 Bft) N 360 13,9 C 16,1 C
07.09.2012 21:21 16,1 C 87 % 1021,2 hPa 0,0 l/m 6,1 km/h (2 Bft) W-NW 292 13,9 C 16,1 C
07.09.2012 21:26 16,0 C 87 % 1021,2 hPa 0,0 l/m 4,0 km/h (1 Bft) NW 315 13,8 C 16,0 C
07.09.2012 21:31 15,9 C 87 % 1021,2 hPa 0,0 l/m 4,7 km/h (1 Bft) NW 315 13,7 C 15,9 C
07.09.2012 21:36 15,9 C 87 % 1021,4 hPa 0,0 l/m 3,2 km/h (1 Bft) W-NW 292 13,7 C 15,9 C
07.09.2012 21:41 15,9 C 88 % 1021,3 hPa 0,0 l/m 5,8 km/h (2 Bft) NW 315 13,9 C 15,9 C
07.09.2012 21:46 15,9 C 88 % 1021,4 hPa 0,0 l/m 5,4 km/h (1 Bft) W-NW 292 13,9 C 15,9 C
07.09.2012 21:51 15,9 C 88 % 1021,4 hPa 0,0 l/m 17,6 km/h (3 Bft) NW 315 13,9 C 15,9 C
07.09.2012 21:56 15,9 C 88 % 1021,5 hPa 0,0 l/m 7,9 km/h (2 Bft) NW 315 13,9 C 15,9 C
07.09.2012 22:01 15,9 C 88 % 1021,4 hPa 0,0 l/m 9,4 km/h (2 Bft) W-NW 292 13,9 C 15,9 C
07.09.2012 22:06 15,9 C 88 % 1021,4 hPa 0,0 l/m 7,6 km/h (2 Bft) NW 315 13,9 C 15,9 C
07.09.2012 22:11 15,9 C 88 % 1021,3 hPa 0,0 l/m 9,4 km/h (2 Bft) W-NW 292 13,9 C 15,9 C
07.09.2012 22:16 15,9 C 88 % 1021,4 hPa 0,0 l/m 6,5 km/h (2 Bft) NW 315 13,9 C 15,9 C
07.09.2012 22:21 15,9 C 88 % 1021,4 hPa 0,0 l/m 5,8 km/h (2 Bft) W-NW 292 13,9 C 15,9 C
07.09.2012 22:26 15,9 C 87 % 1021,5 hPa 0,0 l/m 5,0 km/h (1 Bft) NW 315 13,7 C 15,9 C
07.09.2012 22:31 15,8 C 87 % 1021,5 hPa 0,0 l/m 4,3 km/h (1 Bft) W-NW 292 13,6 C 15,8 C
07.09.2012 22:36 15,8 C 87 % 1021,4 hPa 0,0 l/m 5,4 km/h (1 Bft) W-NW 292 13,6 C 15,8 C
07.09.2012 22:41 15,8 C 87 % 1021,6 hPa 0,0 l/m 3,2 km/h (1 Bft) W-NW 292 13,6 C 15,8 C
07.09.2012 22:46 15,8 C 87 % 1021,6 hPa 0,0 l/m 5,0 km/h (1 Bft) W-NW 292 13,6 C 15,8 C
07.09.2012 22:51 15,8 C 88 % 1021,5 hPa 0,0 l/m 4,7 km/h (1 Bft) W 270 13,8 C 15,8 C
07.09.2012 22:56 15,8 C 88 % 1021,5 hPa 0,0 l/m 1,4 km/h (1 Bft) W-NW 292 13,8 C 15,8 C
07.09.2012 23:01 15,7 C 88 % 1021,6 hPa 0,0 l/m 9,7 km/h (2 Bft) NW 315 13,7 C 15,7 C
07.09.2012 23:06 15,6 C 88 % 1021,6 hPa 0,0 l/m 3,6 km/h (1 Bft) W-NW 292 13,6 C 15,6 C
07.09.2012 23:11 15,6 C 88 % 1021,6 hPa 0,0 l/m 0,0 km/h (0 Bft) W 270 13,6 C 15,6 C
07.09.2012 23:16 15,6 C 88 % 1021,7 hPa 0,0 l/m 6,5 km/h (2 Bft) W-NW 292 13,6 C 15,6 C
07.09.2012 23:21 15,6 C 89 % 1021,7 hPa 0,0 l/m 6,1 km/h (2 Bft) NW 315 13,8 C 15,6 C
07.09.2012 23:26 15,6 C 89 % 1021,7 hPa 0,0 l/m 8,3 km/h (2 Bft) NW 315 13,8 C 15,6 C
07.09.2012 23:31 15,5 C 89 % 1021,7 hPa 0,0 l/m 4,3 km/h (1 Bft) W-NW 292 13,7 C 15,5 C
07.09.2012 23:36 15,5 C 89 % 1021,6 hPa 0,0 l/m 2,5 km/h (1 Bft) W-NW 292 13,7 C 15,5 C
07.09.2012 23:41 15,5 C 89 % 1021,6 hPa 0,0 l/m 5,0 km/h (1 Bft) W 270 13,7 C 15,5 C
07.09.2012 23:46 15,5 C 89 % 1021,5 hPa 0,0 l/m 4,7 km/h (1 Bft) W 270 13,7 C 15,5 C
07.09.2012 23:51 15,5 C 89 % 1021,4 hPa 0,0 l/m 4,0 km/h (1 Bft) W-NW 292 13,7 C 15,5 C
07.09.2012 23:56 15,5 C 89 % 1021,5 hPa 0,0 l/m 2,2 km/h (1 Bft) W-NW 292 13,7 C 15,5 C
_ Min-Zeit 04:16 14:16 13:36 - 23:11 - - 02:06 04:16
Minimum _ 12,3 C 61 % 1019,8 hPa - 0,0 km/h (0 Bft) - - 6,7 C 12,3 C
_ Max-Zeit 14:11 23:21 00:16 19:31 09:11 - - 19:26 14:11
Maximum _ 20,1 C 89 % 1023,5 hPa 0,5 l/m 33,5 km/h
W (5 Bft)
- - 14,2 C 20,1 C
Durchschnitt _ 15,8 C 69 % 1020,9 hPa #1,6 l/m 11,0 km/h (2 Bft) W-SW - 10,1 C 15,8 C
(c) by David Heller